GFSSGP_925_spd_282.txt.gz
Wind_Speed
6 6 3 3 4 5 2 2 3 4 5 0 8 4 6 4 2 3 11 16 20 18 15 12 11 11 11 13 14 14 16 15 16 15 15 15 14 14 15 14 14 13 13 13 13 13 15 15 14
8 7 3 1 5 4 3 1 6 3 5 14 8 6 4 4 4 8 11 18 20 19 16 13 12 11 12 13 13 14 14 14 14 13 13 14 14 13 14 13 12 12 12 12 13 12 12 13 11
6 3 2 3 3 3 4 1 6 10 9 4 5 6 3 3 6 11 12 24 21 19 16 13 12 11 11 13 13 12 12 12 12 11 12 13 13 13 13 13 12 10 10 11 11 11 11 11 9
2 1 2 3 4 2 1 4 12 6 6 7 10 7 5 11 8 7 23 23 22 19 16 13 11 11 11 13 11 12 11 11 11 11 11 12 12 12 12 11 11 10 8 10 11 11 10 8 6
2 1 3 3 3 2 4 4 5 4 5 6 2 4 5 3 14 24 20 22 22 19 16 14 12 11 12 12 12 12 11 10 10 11 11 11 11 13 12 11 10 9 8 11 11 9 8 7 5
1 2 4 2 2 3 4 4 3 8 8 9 9 6 4 14 24 19 20 22 20 20 17 15 12 12 11 11 11 12 11 9 8 10 10 10 12 14 13 12 10 9 9 10 9 7 6 5 6
3 3 2 3 4 3 3 4 4 4 8 5 7 5 4 9 16 17 17 18 18 18 17 16 14 12 11 12 10 10 8 7 8 9 9 10 11 12 12 12 12 11 10 10 8 6 4 5 6
3 3 3 3 5 3 6 3 8 7 5 4 7 4 7 9 17 17 16 16 16 16 17 16 15 13 11 10 10 10 7 7 7 8 8 9 9 9 10 11 12 11 9 7 5 3 4 5 7
2 4 3 5 7 5 8 5 7 6 8 2 3 5 13 24 22 20 17 14 14 15 17 19 18 16 13 11 9 9 7 5 6 6 6 7 7 8 8 9 8 8 6 4 2 2 3 4 6
4 3 2 4 6 8 10 9 6 6 6 4 10 16 21 22 22 19 16 15 16 16 19 20 19 16 13 12 10 9 8 6 6 6 5 6 5 5 6 7 7 6 4 3 3 3 4 6 7
3 2 5 2 7 13 11 6 2 13 2 5 18 17 17 17 14 13 12 17 20 20 19 21 21 17 14 12 10 9 8 8 7 6 5 3 3 3 5 7 9 12 7 4 1 4 6 7 8
3 4 3 1 9 10 12 8 5 4 2 14 19 19 17 13 14 15 16 19 19 21 22 22 22 18 14 11 10 10 9 8 6 4 3 1 2 5 10 11 13 12 11 8 7 6 4 5 10
6 4 5 8 9 12 11 6 6 1 13 15 17 17 14 11 11 12 15 18 21 23 22 23 22 20 16 12 11 11 9 7 5 3 2 1 2 6 8 9 10 11 10 9 8 9 9 9 9
6 6 8 7 9 7 8 5 5 7 14 16 16 14 11 13 16 14 18 19 23 23 22 22 24 22 18 15 14 12 8 7 5 4 3 2 2 6 8 7 10 11 10 8 10 12 13 10 9
4 2 3 4 4 3 9 2 3 14 16 17 14 12 11 13 15 19 22 24 25 24 23 25 24 23 20 17 15 12 9 8 7 6 5 4 3 5 6 7 10 12 12 8 11 12 11 6 5
4 4 2 2 4 5 4 4 6 15 17 15 14 11 10 11 20 20 23 24 25 25 24 25 27 27 23 19 16 13 11 11 11 10 9 7 6 7 8 8 11 12 12 12 12 14 12 10 9
3 2 2 3 5 5 2 1 7 11 14 13 12 12 12 11 11 19 23 27 27 27 27 27 28 29 26 22 19 16 14 14 13 12 13 12 10 8 11 12 11 11 11 12 13 13 13 14 14
4 2 2 5 6 4 5 3 11 11 11 13 12 11 10 8 13 23 26 27 27 28 27 27 28 27 25 21 18 17 17 16 18 16 15 14 14 13 14 14 13 12 12 11 12 14 14 14 14
4 3 3 4 7 4 6 5 12 13 9 10 9 9 9 11 14 24 26 28 29 28 28 29 30 29 25 24 22 20 18 15 17 18 19 17 16 16 16 17 16 15 13 12 13 14 14 15 17
4 3 5 2 5 4 5 6 13 15 15 13 13 12 10 5 7 16 23 27 31 34 33 32 31 31 28 27 24 22 20 18 16 17 19 20 21 19 16 14 16 17 16 15 13 13 14 15 15
2 6 4 3 5 3 5 2 9 11 6 7 10 7 6 9 9 9 19 26 27 30 35 35 34 32 31 27 26 23 19 19 19 19 19 18 19 20 19 17 17 18 18 18 17 16 14 14 16
3 2 5 8 4 3 2 4 3 10 15 14 9 9 7 7 7 7 13 18 24 32 32 34 34 33 32 29 28 27 24 22 26 25 23 20 19 19 19 18 19 19 21 22 22 20 18 14 14
3 4 4 4 5 4 4 3 5 3 11 15 14 12 6 6 8 9 16 23 22 24 28 30 30 32 31 30 29 27 26 26 23 23 22 20 20 20 22 23 21 23 23 23 25 25 23 19 15
5 6 8 5 3 2 3 4 3 3 5 7 6 8 8 8 6 6 9 17 19 17 20 23 26 26 26 25 25 27 28 28 25 23 24 25 26 25 25 25 25 24 27 30 28 25 26 24 21
7 6 3 3 3 5 4 4 1 9 9 12 11 11 10 7 5 5 8 11 12 11 15 16 18 20 22 24 25 27 30 29 28 28 28 28 28 30 31 28 28 30 30 31 33 31 29 29 27
3 6 6 5 4 3 4 4 6 5 8 9 10 11 10 8 6 5 5 10 9 12 9 9 8 11 13 17 20 22 25 29 30 32 32 34 36 36 34 32 33 33 32 32 33 35 33 31 30
3 2 4 7 3 3 2 2 3 10 10 9 10 10 6 3 7 2 6 13 13 14 11 11 9 4 1 5 10 14 18 20 21 22 24 29 35 38 38 37 36 36 35 35 36 36 38 37 36
3 5 3 3 4 2 3 3 4 8 8 8 8 6 5 7 5 1 8 16 14 14 13 12 9 6 4 4 6 7 8 12 16 19 24 27 31 35 37 37 37 37 37 35 36 37 37 37 37
4 3 7 6 3 5 3 2 5 2 3 7 7 7 7 9 8 7 12 15 14 10 9 6 6 6 6 6 8 9 10 12 14 15 19 21 23 30 32 34 36 37 38 38 38 37 35 34 35
2 3 4 5 3 1 3 2 3 4 5 8 10 9 9 11 10 12 14 15 12 14 14 13 13 14 13 12 12 12 13 14 15 16 19 19 20 19 23 30 32 34 38 40 40 41 39 37 34

GFSSGP_925_spd_288.txt.gz
Wind_Speed
5 4 2 4 3 4 15 16 16 18 11 4 7 4 12 12 10 11 20 15 17 14 13 12 13 14 15 13 13 15 15 16 15 15 16 15 14 15 15 14 14 15 16 16 16 15 15 15 14
3 2 4 3 4 11 10 14 15 11 12 13 10 10 6 8 10 17 17 18 15 15 14 12 14 15 14 14 14 13 14 14 14 15 15 15 14 14 14 14 15 15 15 15 15 14 13 11 11
4 2 4 3 8 12 10 13 11 13 14 10 6 10 6 6 17 14 22 19 16 15 14 13 14 14 14 12 12 13 13 14 15 15 14 14 14 14 13 13 13 14 14 13 13 12 12 11 9
3 5 4 6 16 11 13 13 14 14 10 5 12 10 9 11 10 14 21 19 17 15 14 13 14 13 12 14 12 13 14 15 15 14 13 12 13 14 13 12 12 14 13 12 12 12 11 11 9
3 4 5 14 17 14 12 11 9 11 9 9 4 10 12 10 14 22 20 18 16 15 14 13 13 12 11 12 12 13 14 15 14 14 13 15 17 14 13 13 13 13 13 12 11 11 11 11 11
3 4 7 13 15 12 10 9 8 8 10 11 15 19 9 13 22 20 18 16 15 15 13 12 12 12 11 11 11 13 14 13 13 14 14 15 16 15 14 14 14 13 12 11 11 11 11 13 11
3 1 9 15 14 12 9 6 7 10 10 10 12 17 13 18 21 20 18 16 15 13 13 12 11 9 10 11 10 10 12 12 12 13 12 14 15 18 18 17 15 13 11 9 9 10 11 13 13
2 2 10 10 11 13 9 8 6 10 11 12 17 8 17 21 21 20 17 15 14 13 12 12 11 9 11 10 8 9 10 10 11 10 12 16 18 18 17 14 12 10 8 7 7 7 8 10 11
1 4 9 10 10 10 11 12 7 8 13 7 3 17 22 23 20 20 18 15 14 12 12 12 11 9 8 9 7 7 8 9 11 11 12 13 12 12 11 10 8 5 4 5 5 6 7 7 10
3 8 10 6 8 12 10 10 12 12 12 13 15 21 23 22 20 19 18 17 16 15 13 12 12 12 9 8 7 7 8 8 7 6 8 10 10 10 9 10 11 10 7 8 8 7 7 7 5
1 7 4 4 8 13 13 11 9 13 9 13 21 22 21 20 18 16 15 15 16 16 14 13 13 9 9 8 7 7 7 7 5 6 7 8 8 8 9 10 10 9 11 10 9 9 7 7 5
5 4 4 8 12 12 11 10 12 4 12 14 19 20 19 16 15 14 12 12 12 17 16 14 11 10 7 6 6 8 8 7 6 5 5 6 6 8 9 9 9 10 9 9 9 9 8 7 6
8 7 11 11 13 13 12 11 10 6 10 18 20 18 16 14 13 12 12 12 14 16 17 15 12 9 7 5 6 6 7 6 5 4 3 4 5 6 6 8 9 9 9 9 10 10 10 8 5
7 10 14 12 13 12 13 13 5 9 17 20 18 16 14 14 14 14 12 12 16 16 18 15 15 11 7 5 5 5 5 4 4 3 2 3 4 5 5 5 6 7 9 9 9 10 10 8 6
7 15 12 11 11 9 13 8 13 15 19 19 17 14 13 13 13 12 12 12 13 16 16 14 16 12 9 7 6 5 4 5 4 4 2 1 3 5 4 4 5 7 7 8 8 9 8 8 7
5 8 8 9 10 9 9 12 14 17 19 18 16 13 12 11 13 11 11 11 12 14 16 17 15 13 11 7 5 4 4 3 5 6 5 3 3 4 5 5 5 8 7 7 7 8 9 8 8
4 7 7 8 10 8 8 10 15 16 16 16 14 13 12 12 11 11 11 11 13 13 15 16 15 14 12 10 8 6 5 4 4 6 7 5 4 4 5 7 7 9 8 7 7 7 7 8 9
6 5 5 6 9 7 7 11 15 15 15 16 15 14 13 12 13 13 11 10 12 13 14 16 15 12 11 9 9 8 7 6 6 6 7 7 5 4 5 7 8 9 9 8 7 9 9 9 9
1 1 1 4 7 9 8 11 14 16 14 15 15 14 14 13 14 14 12 12 12 13 15 16 17 16 13 12 10 10 9 8 8 8 8 7 7 7 7 7 7 8 7 7 9 10 11 11 10
9 7 5 5 9 10 10 9 13 16 14 14 15 15 15 15 13 14 14 14 14 14 15 17 18 18 17 13 11 9 6 6 8 6 6 8 9 10 10 9 8 7 8 8 8 8 11 13 8
10 9 4 1 10 4 8 10 12 14 14 12 12 14 15 15 15 13 14 15 16 17 18 18 18 18 18 16 12 11 9 9 9 8 8 8 9 10 11 11 11 10 9 10 8 9 9 12 12
7 1 6 8 12 5 10 4 12 14 14 14 12 12 13 14 12 13 14 15 17 18 18 19 19 18 15 15 16 12 11 11 9 6 8 9 11 13 14 13 12 12 12 12 11 11 10 10 13
6 2 4 6 8 4 9 8 9 8 12 15 14 9 11 12 13 14 16 14 13 13 15 15 16 16 16 16 18 15 16 13 10 9 9 11 12 12 12 14 14 14 15 15 14 13 12 12 12
11 9 6 4 7 9 7 7 11 7 5 3 8 16 14 13 7 5 3 6 7 10 12 11 12 11 11 12 15 16 18 14 14 14 14 16 14 12 11 13 14 16 18 19 18 18 17 16 16
9 11 8 9 9 10 6 6 11 7 3 4 7 11 16 13 10 8 8 6 7 10 7 5 4 4 4 4 7 12 13 13 13 15 15 16 16 16 14 13 15 17 18 19 19 20 20 19 19
13 12 11 11 10 8 5 6 7 5 3 3 8 14 15 15 9 7 6 9 9 7 7 8 8 4 0 2 8 8 4 7 9 11 13 13 14 16 17 18 19 19 19 20 20 22 23 22 21
7 9 6 12 6 11 11 7 5 5 6 4 5 12 12 14 11 11 15 17 18 19 18 18 19 18 19 20 14 4 4 5 8 8 8 9 10 11 14 15 16 18 19 19 20 22 23 24 24
6 7 7 8 14 13 8 5 2 7 5 9 10 10 9 11 13 13 19 18 18 18 19 18 18 18 15 5 5 7 6 5 7 9 8 10 10 12 12 13 14 15 16 18 19 22 24 24 25
6 8 5 6 4 10 9 3 5 5 5 10 9 10 11 15 13 12 17 16 16 15 19 15 13 14 12 9 9 9 9 10 11 11 12 14 16 16 16 16 16 16 15 16 19 19 22 26 27
4 5 8 8 11 8 9 2 6 8 11 11 10 11 13 13 12 14 15 13 12 13 13 11 12 11 11 9 13 13 13 14 14 15 17 18 20 20 20 20 20 19 17 16 16 19 24 26 26

GFSSGP_925_spd_291.txt.gz
Wind_Speed
8 8 8 6 3 7 16 14 16 18 12 10 12 7 17 14 12 14 20 21 18 17 15 13 14 15 15 15 16 16 15 15 15 15 14 14 14 14 14 15 15 15 16 16 16 16 15 15 15
7 4 9 5 3 11 12 14 13 11 12 11 12 12 19 18 19 20 21 20 18 18 16 14 15 16 16 16 15 15 14 14 15 14 15 13 13 14 15 14 15 15 15 15 14 13 12 12 12
7 7 5 3 5 13 11 17 15 16 13 11 13 15 10 18 17 19 25 21 19 17 16 14 15 16 15 15 15 14 14 14 14 13 13 13 13 13 13 14 14 14 14 13 12 11 10 10 9
7 7 6 2 10 20 12 15 18 15 11 15 17 14 19 17 18 26 22 21 21 18 16 15 15 15 15 15 14 14 14 14 13 12 10 14 13 12 12 13 13 13 13 12 11 10 10 9 9
10 2 3 8 16 16 15 15 14 12 11 11 16 19 20 11 23 23 20 20 19 20 16 15 15 15 14 15 14 15 14 14 13 12 15 13 13 13 13 13 14 13 12 12 11 10 11 11 11
6 2 0 11 15 13 11 9 12 11 12 10 20 22 13 19 24 22 20 18 21 21 17 15 16 14 14 14 14 14 13 13 12 14 15 14 14 14 14 14 13 12 11 11 10 11 12 10 11
7 8 11 15 15 12 13 7 10 13 11 14 20 15 15 22 22 21 18 20 17 19 18 15 14 14 14 13 13 13 13 12 12 14 15 17 18 18 17 15 13 11 9 8 9 9 11 11 10
5 2 12 10 12 13 8 11 9 12 15 14 16 10 21 23 23 21 17 19 16 18 16 18 15 14 13 12 11 11 12 12 14 15 16 19 19 17 14 13 9 8 7 7 7 8 8 11 11
5 3 8 14 13 13 12 12 11 14 13 9 5 23 24 26 23 21 18 17 16 15 16 17 14 18 10 11 8 11 12 14 13 10 7 5 9 13 11 6 7 6 6 7 8 9 8 6 13
4 8 13 13 15 12 11 14 16 13 12 15 21 24 26 23 21 20 19 19 17 19 16 15 15 12 9 15 8 10 9 10 9 6 6 12 11 9 12 11 14 10 9 11 11 8 5 2 9
6 12 13 7 15 13 14 15 11 15 14 15 20 22 22 22 22 21 18 17 19 16 20 17 15 10 9 11 11 11 10 10 9 5 9 7 7 5 9 8 6 6 8 3 1 6 1 8 7
4 9 13 12 13 12 14 13 11 6 15 18 19 20 19 16 15 14 14 22 15 18 17 10 15 8 9 9 7 7 9 8 11 8 4 3 9 7 8 7 7 6 9 6 9 10 6 6 6
6 13 14 14 11 14 10 11 10 10 16 19 20 18 17 15 14 12 7 9 17 17 19 13 15 8 8 4 6 5 9 8 8 8 4 5 8 5 5 5 7 7 6 7 7 7 6 2 6
3 12 16 10 14 10 14 11 9 12 18 19 17 16 15 13 14 14 15 15 14 16 21 13 15 12 10 7 7 7 5 5 5 5 7 2 6 2 1 2 4 6 5 6 6 5 6 5 5
17 15 15 12 11 10 13 14 11 16 16 18 16 14 12 12 13 13 12 22 15 15 19 16 15 13 11 9 9 5 7 8 6 4 3 1 4 4 4 4 4 5 5 3 2 7 3 5 6
8 9 10 15 11 8 10 12 15 16 18 16 15 13 13 12 14 13 13 11 20 14 17 17 17 14 11 10 8 7 5 4 5 5 6 4 1 2 5 4 3 4 9 5 4 5 6 6 8
9 5 12 13 12 10 13 15 16 17 16 16 14 13 13 14 13 11 11 13 15 19 19 20 15 14 12 10 8 6 5 4 5 5 6 6 4 4 5 6 6 7 8 6 6 5 8 9 8
5 12 8 15 14 14 11 17 16 17 17 16 15 14 14 14 14 14 14 14 16 16 17 16 15 13 12 9 7 6 6 6 6 4 6 5 5 3 5 7 6 7 8 7 6 6 10 10 13
2 13 4 20 13 15 12 16 18 18 17 16 16 13 14 15 19 16 14 14 15 16 18 18 16 13 13 11 10 8 9 7 6 9 7 3 6 6 5 8 7 6 6 4 7 8 9 11 10
6 7 5 6 14 10 18 18 17 16 15 16 15 16 16 16 16 17 15 15 17 16 16 17 17 15 13 11 9 6 4 5 5 1 2 8 9 7 9 8 7 7 8 7 7 8 10 12 11
11 11 6 5 10 19 15 10 18 17 14 14 15 14 16 16 16 17 17 16 15 17 16 17 17 16 15 12 8 7 5 8 8 8 9 12 10 9 9 10 11 10 9 11 7 8 9 12 11
17 7 7 15 15 1 10 1 7 17 16 15 14 15 14 17 17 15 19 18 18 17 18 16 16 16 15 15 13 8 8 10 5 10 4 5 3 8 11 13 12 12 13 15 11 13 13 10 13
7 4 9 11 12 9 7 11 11 22 17 18 17 15 16 15 18 17 19 21 17 17 20 19 17 16 14 13 14 13 12 11 13 7 7 3 7 11 11 11 14 14 14 16 14 15 13 15 16
3 6 5 9 12 13 11 11 10 11 15 18 16 17 13 14 13 15 19 20 18 11 7 15 18 15 13 11 6 9 10 12 18 11 12 9 11 12 18 10 10 12 15 17 18 18 18 19 19
11 14 9 11 10 10 4 6 12 13 6 3 6 18 18 12 15 12 9 12 10 7 3 2 13 6 4 4 1 4 5 7 12 14 13 12 15 14 14 12 11 14 16 18 18 19 20 20 22
16 18 13 12 12 7 10 8 10 11 7 4 7 10 19 20 14 14 16 14 11 18 14 13 16 15 11 12 15 9 10 8 7 7 8 9 10 11 10 11 14 16 18 21 22 22 22 23 23
15 17 17 15 16 10 8 10 10 12 8 5 7 11 14 18 5 13 26 25 21 16 17 19 16 18 16 18 14 17 11 11 8 8 6 5 6 8 9 13 15 16 16 17 19 21 23 23 23
16 8 14 10 16 17 14 10 10 14 13 11 7 18 18 21 21 12 21 21 19 16 17 17 15 15 13 5 4 5 7 9 9 8 8 9 11 12 16 18 17 18 18 18 18 18 19 21 23
13 15 15 16 13 9 10 3 11 13 14 14 12 13 14 16 14 11 17 19 14 13 14 15 15 14 13 13 10 5 8 9 11 10 11 11 14 16 19 20 20 21 21 21 20 20 20 22 24
10 10 17 14 16 12 11 2 8 11 19 18 14 13 12 11 11 9 14 16 12 12 11 11 10 11 11 12 12 7 9 12 13 14 15 17 19 19 22 23 24 24 24 24 23 22 23 23 23

GFSSGP_925_spd_297.txt.gz
Wind_Speed
8 8 4 4 0 2 7 6 13 9 11 8 15 12 15 10 5 9 21 22 22 18 17 17 16 17 17 17 16 16 15 15 16 16 17 16 17 17 17 17 17 17 16 15 15 14 13 14 15
6 5 8 3 2 6 6 8 11 19 15 23 22 22 19 19 18 18 18 27 23 20 18 19 16 17 17 16 16 14 13 15 15 15 16 17 16 17 16 16 16 15 14 13 12 12 12 13 14
5 7 2 2 1 5 4 8 15 18 19 21 12 15 10 17 14 11 29 30 28 21 21 19 16 16 16 15 15 14 12 13 13 13 14 15 15 15 15 15 14 13 12 11 9 10 11 12 14
10 4 3 1 7 11 13 12 17 17 22 21 18 14 13 22 16 30 35 29 24 23 21 19 17 17 16 15 16 13 13 11 13 14 14 14 14 15 14 13 12 11 10 9 8 8 10 12 13
13 2 2 11 14 18 14 18 18 17 15 22 23 16 16 27 32 28 32 27 24 23 21 19 17 17 17 16 17 14 12 14 14 13 13 14 15 15 14 13 12 10 10 10 9 10 11 14 15
3 3 3 8 13 9 13 13 18 21 19 22 24 23 16 33 29 29 29 29 23 24 20 18 17 17 16 16 15 12 12 12 12 13 15 16 16 15 14 12 11 10 11 11 11 11 12 16 17
5 2 8 8 14 13 12 11 19 20 23 16 19 25 14 26 28 29 27 30 25 22 20 18 17 15 15 15 14 13 15 16 15 17 19 18 17 15 13 11 10 10 10 10 11 12 13 15 16
3 1 1 5 6 11 17 14 18 25 21 25 21 11 17 24 35 30 27 28 26 19 18 17 17 15 17 17 17 17 19 19 19 18 18 16 14 12 11 10 9 10 10 9 8 8 9 10 11
3 1 1 8 9 18 18 19 16 18 25 18 9 18 24 33 33 30 19 25 23 26 19 18 16 17 18 20 20 17 16 13 12 12 12 11 10 8 9 9 7 8 9 7 6 5 4 2 4
2 2 7 10 10 18 20 17 16 13 18 23 22 22 28 34 31 26 23 17 21 24 20 19 18 20 20 22 19 13 8 9 8 6 4 6 5 6 7 7 5 5 6 4 1 3 2 6 8
4 5 6 11 11 16 17 16 16 20 20 22 27 23 20 29 28 27 24 28 26 25 19 20 19 15 20 19 14 11 10 4 8 8 3 3 11 6 9 6 0 2 2 5 1 5 3 11 20
3 9 12 11 16 15 12 13 14 19 21 22 21 20 20 12 23 25 25 27 27 24 23 25 13 12 18 14 15 11 8 7 4 5 6 6 4 2 14 9 6 3 7 10 6 3 8 10 20
3 8 12 15 13 9 11 7 18 23 23 21 19 19 18 15 17 24 27 25 26 26 20 23 15 13 9 11 15 19 13 10 7 6 13 13 5 4 16 9 11 15 10 10 8 15 13 6 5
17 9 15 11 7 14 12 11 16 20 21 20 18 16 16 13 15 18 22 26 25 25 23 20 17 12 12 15 17 13 6 9 9 4 3 9 6 11 12 8 11 11 3 4 11 10 17 13 9
12 6 12 11 8 11 9 13 13 16 18 17 14 11 18 12 18 21 23 29 29 24 21 21 16 10 8 10 11 7 3 12 7 14 4 6 3 5 8 1 4 3 2 6 18 9 12 7 14
9 4 3 9 13 3 8 11 16 15 14 13 13 11 15 19 24 23 26 23 26 28 25 19 15 13 8 13 12 4 6 8 15 16 10 4 3 2 6 7 7 6 5 6 13 14 8 2 8
6 4 4 8 13 10 6 13 17 14 13 11 10 8 15 9 17 21 22 26 27 30 24 24 18 15 12 13 6 2 3 6 11 16 15 9 5 3 8 6 6 9 9 6 7 8 6 6 5
13 7 4 5 3 12 9 13 15 14 15 13 10 9 12 15 14 23 21 24 26 28 23 22 21 20 15 11 7 5 2 7 5 2 14 11 8 6 7 8 6 10 7 8 7 11 12 9 9
18 11 7 2 6 6 10 9 13 14 12 14 13 9 14 12 21 26 28 25 24 26 23 23 19 24 20 15 12 10 8 3 2 6 11 7 2 5 4 10 10 11 10 6 10 12 11 12 13
19 10 4 12 7 6 12 3 10 10 16 16 15 12 15 13 9 18 27 26 29 28 25 24 17 27 20 14 13 5 3 5 3 3 5 11 8 5 11 9 11 9 13 11 11 16 9 9 14
19 23 12 14 16 5 11 3 10 5 2 13 16 15 17 16 13 14 25 27 28 31 26 26 21 22 19 15 11 8 5 1 3 5 3 7 8 9 7 10 11 11 14 12 12 14 9 10 12
9 26 19 23 12 7 4 4 5 8 6 7 17 16 16 16 14 12 21 27 30 32 33 29 25 22 18 18 8 6 5 1 4 6 3 5 2 6 6 11 15 13 11 14 15 15 15 14 16
6 9 22 26 12 8 4 5 7 6 10 7 13 18 21 22 20 19 21 24 31 31 34 32 30 25 20 19 12 4 5 3 2 5 7 7 5 3 8 13 21 15 7 11 12 15 17 16 16
10 4 9 8 6 3 13 6 5 7 13 8 3 7 17 21 19 20 29 27 30 31 31 28 23 23 17 16 13 10 5 2 3 2 2 3 5 7 7 5 15 14 10 11 16 17 18 19 19
9 4 4 4 2 8 14 3 7 17 11 15 7 3 5 11 19 17 16 24 28 27 26 30 29 24 16 3 6 8 8 9 6 5 6 8 10 9 10 6 7 12 12 14 13 15 16 18 19
7 6 5 4 3 7 19 8 5 16 11 7 5 7 4 14 13 16 15 23 25 25 29 33 29 13 8 6 10 11 10 10 8 9 10 11 10 11 11 8 7 8 14 17 17 17 17 18 22
7 6 10 6 5 3 3 6 8 5 11 9 7 4 2 7 21 19 24 26 28 30 25 25 25 24 21 19 17 16 13 11 9 10 12 13 9 6 12 14 13 15 17 18 21 23 25 21 21
8 6 4 4 3 4 4 6 9 14 11 11 10 10 11 11 19 18 23 25 28 32 31 26 24 21 15 16 16 16 14 12 11 10 9 9 10 11 13 16 17 20 23 22 22 25 27 28 28
3 4 4 1 3 1 2 3 14 19 20 20 15 12 11 14 15 14 20 25 29 31 28 23 20 21 20 16 16 12 10 8 7 8 11 14 15 16 18 19 19 20 23 24 25 25 25 27 30
8 7 4 5 9 4 5 2 16 17 15 18 15 14 12 12 12 13 18 23 25 27 25 21 19 19 17 14 11 9 5 5 9 12 12 15 15 18 19 20 23 23 24 25 26 27 26 29 31

GFSSGP_925_spd_303.txt.gz
Wind_Speed
5 1 4 2 2 5 2 2 3 9 5 1 15 5 9 10 2 3 15 14 16 14 13 13 13 13 12 12 12 12 12 13 15 13 13 13 14 15 14 14 14 13 13 12 13 11 11 12 12
8 2 3 2 4 4 2 3 7 3 5 12 8 8 10 5 6 10 11 16 17 15 15 14 12 12 11 12 12 11 12 12 12 13 13 13 13 13 13 12 12 12 11 11 10 10 11 12 12
7 4 3 2 3 2 3 1 9 11 7 4 5 7 4 3 9 10 14 20 18 16 15 14 12 11 10 10 11 11 12 12 12 12 12 13 12 12 12 11 11 10 9 8 8 8 9 10 10
5 5 3 2 4 2 5 10 12 8 6 8 12 9 5 13 6 12 22 20 19 16 14 13 12 11 10 10 10 10 10 11 12 13 12 12 11 11 11 9 9 9 7 7 7 8 8 8 6
6 2 2 0 3 5 6 12 6 4 5 9 4 6 4 5 18 25 23 21 21 17 14 11 10 10 10 10 9 9 10 11 11 11 12 12 11 10 10 9 8 8 8 7 7 8 8 7 5
3 1 3 2 5 5 6 9 8 8 8 10 10 8 4 21 26 23 22 22 19 17 14 10 9 8 9 9 9 11 10 10 11 11 12 12 11 10 9 9 9 9 9 9 8 8 7 5 3
1 1 1 6 8 9 6 9 8 10 10 7 6 5 8 14 21 23 22 21 18 16 14 13 11 9 9 9 8 10 11 10 12 12 11 10 9 9 9 8 9 10 11 11 9 8 5 1 2
2 1 1 2 9 5 12 5 10 6 8 13 8 4 11 14 24 21 22 20 17 14 12 12 11 10 10 10 11 12 13 13 12 10 9 8 7 6 6 6 7 8 10 11 11 8 4 1 3
1 1 3 6 7 6 14 9 7 6 11 2 2 7 17 24 25 22 21 17 15 13 12 12 12 12 14 15 15 15 13 12 11 9 7 7 7 5 5 4 4 5 6 8 7 5 4 2 3
2 2 3 5 6 13 11 16 8 7 7 9 17 17 25 24 23 20 16 16 17 16 14 13 13 16 16 16 14 12 10 7 5 4 4 4 5 5 4 2 3 2 3 1 2 0 3 6 7
1 3 6 6 15 19 16 12 5 16 7 17 21 20 22 23 20 19 18 24 23 18 16 16 17 18 16 14 12 10 9 8 11 10 9 9 9 3 1 3 3 1 2 2 7 6 4 2 7
4 6 5 8 13 14 17 12 9 3 7 14 16 22 23 17 18 19 19 22 21 20 17 17 18 18 15 12 9 9 7 7 8 8 11 11 14 12 8 8 4 3 3 1 7 6 4 1 5
2 8 13 11 12 14 15 9 11 5 15 16 18 18 16 17 17 18 18 23 22 22 21 19 19 17 14 9 9 8 8 6 5 4 9 10 8 11 10 13 11 6 7 5 5 7 2 2 3
5 8 7 5 14 16 14 9 5 11 17 18 18 17 15 17 20 16 20 25 26 25 23 21 19 15 12 11 11 11 9 9 6 7 9 6 8 9 7 10 10 8 5 4 1 2 2 3 4
3 16 12 5 5 8 16 3 6 16 17 18 17 16 14 17 20 20 25 27 31 27 26 23 20 15 12 11 12 16 13 10 9 7 8 7 5 6 9 13 13 9 7 4 4 4 3 2 10
6 6 3 2 7 8 4 4 8 13 17 17 16 14 14 14 21 22 26 25 31 28 28 23 20 19 15 12 11 10 8 12 11 8 4 5 5 5 5 6 7 8 6 5 4 2 3 7 8
7 4 4 6 7 3 3 4 12 14 14 14 14 14 14 13 20 24 27 29 33 31 28 27 24 24 19 16 13 7 5 8 9 10 8 5 4 2 1 1 3 2 5 3 1 2 5 7 10
4 5 2 3 6 8 3 3 15 15 14 15 14 14 14 14 18 27 29 32 33 33 27 29 28 23 21 19 14 10 7 6 5 10 13 9 7 5 4 2 3 4 3 5 2 3 4 5 7
12 12 10 5 5 1 6 2 17 16 12 12 12 12 14 13 20 23 28 29 29 33 33 30 27 24 20 21 17 12 9 10 7 6 11 13 11 8 7 5 3 4 3 3 3 4 5 5 3
6 8 1 3 2 3 2 10 14 15 18 15 10 10 13 14 8 16 23 26 30 35 36 32 27 23 23 24 19 12 8 12 8 7 9 11 10 8 10 10 6 6 5 4 5 5 5 5 4
4 7 9 4 5 2 0 6 6 7 8 11 10 14 12 16 12 11 21 27 28 28 35 35 29 26 21 21 17 11 7 8 9 9 7 8 9 8 9 9 6 4 3 6 3 4 4 4 9
6 12 12 11 8 4 5 4 7 12 8 9 15 14 15 14 13 12 17 21 26 31 33 34 31 28 23 19 17 16 12 8 7 9 7 5 3 3 4 4 5 7 3 3 3 4 4 7 10
10 9 5 7 4 3 2 1 6 7 16 19 15 16 18 17 16 17 21 26 31 27 32 35 32 29 27 22 17 16 11 8 9 7 5 5 5 3 5 7 5 8 7 7 8 8 9 11 11
8 11 9 4 3 3 8 6 6 6 26 21 12 18 19 19 18 19 26 24 23 25 28 33 30 27 29 24 17 13 12 13 12 8 8 5 8 10 9 9 9 7 8 10 10 10 11 12 14
9 8 3 2 1 6 2 7 12 5 6 24 18 14 17 17 17 15 14 19 19 22 23 27 28 26 26 22 18 14 12 14 10 9 10 12 11 9 9 7 8 9 8 8 9 9 11 14 14
13 9 6 7 5 3 5 6 5 10 4 7 7 4 11 15 13 13 14 18 18 21 23 25 27 24 18 15 14 13 11 12 14 11 12 15 12 9 7 8 9 8 9 10 11 13 13 14 16
4 6 6 7 2 3 4 5 3 13 13 14 13 14 11 9 9 8 10 16 20 22 25 27 28 19 14 14 17 17 18 19 20 16 12 11 9 6 7 8 8 10 13 14 13 15 17 19 20
7 5 2 3 4 4 5 4 4 3 8 11 12 12 11 12 11 9 12 16 16 19 21 25 25 24 22 22 21 21 20 19 16 13 11 8 8 6 6 7 10 10 12 14 17 18 19 21 22
0 2 5 5 4 6 3 5 4 7 10 11 10 11 12 12 12 11 11 20 23 24 23 26 24 24 23 21 20 18 15 12 9 7 8 7 7 8 10 11 13 13 15 16 18 18 20 21 22
2 2 6 5 4 1 3 4 6 8 12 13 11 12 11 12 9 9 16 11 16 23 24 23 21 21 18 15 13 12 10 8 6 4 8 9 9 10 11 12 12 13 14 16 19 21 22 23 22

GFSSGP_925_spd_309.txt.gz
Wind_Speed
4 1 2 1 1 5 6 5 8 14 9 2 9 1 5 7 2 7 7 7 11 10 9 9 9 10 10 11 11 13 13 12 12 12 13 14 14 13 13 13 14 14 14 14 14 13 13 12 12
2 1 1 1 3 7 5 7 14 7 6 12 10 6 4 4 3 9 10 11 11 11 11 10 10 10 10 10 10 10 11 12 12 13 12 12 13 14 12 12 12 13 12 13 13 14 14 13 11
1 2 1 3 3 6 6 3 7 7 12 5 4 5 3 3 8 11 8 13 12 11 10 10 9 10 9 10 9 9 9 10 11 12 12 12 11 11 12 10 10 10 10 11 12 12 11 10 8
1 1 2 4 10 5 5 11 15 12 6 2 8 8 5 6 7 6 15 13 12 11 10 8 9 9 10 9 8 9 11 10 10 11 11 11 11 10 10 9 9 8 9 10 10 10 8 7 7
0 1 3 6 10 5 11 14 11 8 8 8 3 6 9 3 9 17 15 13 13 11 9 8 8 7 8 8 7 8 9 9 9 10 11 9 9 9 9 8 8 8 8 8 9 7 6 5 6
2 1 4 6 10 11 9 8 7 8 9 10 11 13 5 9 16 14 13 12 11 10 8 7 7 6 9 8 8 7 9 9 9 9 9 9 8 9 9 9 8 9 8 8 7 6 4 4 5
2 1 4 9 11 8 6 6 5 8 9 7 13 9 6 11 12 13 13 12 10 8 8 8 6 7 7 7 10 10 10 10 11 11 10 9 8 8 10 10 10 10 9 7 5 3 2 3 4
2 0 6 4 8 4 9 5 9 7 5 11 12 6 9 14 15 13 13 11 9 7 6 6 7 5 7 6 9 9 11 11 11 11 10 10 8 8 8 10 10 11 9 7 5 2 1 3 5
0 2 4 5 8 8 12 7 5 4 12 4 4 11 17 21 16 15 13 10 9 7 6 6 6 6 7 9 9 11 12 11 10 9 9 7 5 4 3 5 8 8 8 6 4 2 2 5 8
2 1 2 3 5 9 12 10 9 8 9 7 13 16 23 20 18 17 14 12 10 9 8 7 7 8 10 9 9 9 8 7 7 8 6 4 5 5 3 2 4 4 4 3 3 4 4 4 6
2 1 3 3 7 15 13 11 5 12 6 8 22 22 22 20 17 16 14 13 12 10 10 10 11 10 9 8 8 6 5 6 6 6 4 3 4 5 5 4 4 4 4 4 6 6 4 4 6
1 3 3 8 11 12 12 11 12 1 1 14 19 21 21 16 17 18 16 14 13 12 12 13 13 13 9 8 7 6 5 5 5 6 7 5 6 5 5 4 4 3 3 5 6 5 4 5 9
1 3 5 9 11 11 11 8 10 5 13 19 20 19 17 16 16 15 13 13 13 13 14 13 13 14 11 8 6 6 6 5 4 4 4 5 5 5 5 5 3 1 2 3 4 5 6 6 5
2 9 14 10 10 8 9 6 2 7 16 17 19 17 15 16 17 14 14 15 15 15 18 15 15 14 11 8 7 5 4 4 3 5 5 3 4 3 5 4 2 1 3 2 2 6 6 5 7
4 17 12 8 6 4 11 5 0 12 16 17 17 15 15 16 16 16 17 16 17 17 18 18 17 14 12 10 7 6 6 5 3 2 4 3 2 3 5 4 2 1 1 1 2 5 6 8 9
6 5 4 6 8 8 3 2 5 14 17 17 16 14 14 16 19 18 17 16 15 16 18 17 16 14 14 12 11 11 11 9 7 6 4 5 5 3 4 2 1 2 3 2 2 4 6 6 7
3 5 6 8 6 6 9 2 8 15 15 16 16 15 14 13 17 19 19 19 18 18 18 20 20 17 15 14 13 14 15 13 9 8 8 5 5 5 5 6 4 4 3 4 3 4 7 9 12
2 4 3 6 4 10 10 7 11 16 17 16 16 15 14 15 19 21 20 19 19 18 18 19 21 21 18 13 10 9 10 11 11 10 11 9 8 7 7 5 6 6 7 6 6 5 7 8 11
4 5 4 4 2 5 8 8 11 16 16 15 16 15 16 17 20 19 20 21 20 19 19 21 21 22 16 14 10 9 9 9 9 7 9 12 11 10 9 7 6 6 5 6 6 6 7 8 7
5 5 5 4 3 3 2 9 11 17 21 20 19 18 19 18 15 19 22 22 24 25 24 24 26 23 20 16 14 11 9 9 8 8 8 9 11 10 10 10 10 9 9 10 5 5 5 5 4
12 10 7 2 3 4 6 8 11 14 17 18 18 17 18 19 18 17 21 25 26 26 26 27 30 26 26 22 16 14 13 12 8 9 9 7 9 10 10 11 10 9 5 5 5 4 8 5 3
8 6 9 5 3 4 5 5 3 10 17 20 20 19 20 20 20 18 21 23 27 29 25 26 30 32 28 26 18 17 17 16 16 15 10 6 4 4 4 5 5 5 4 3 2 1 1 2 2
1 2 5 5 3 3 1 3 3 3 10 18 20 22 21 21 20 20 24 27 29 24 25 25 26 29 30 30 24 21 19 19 14 10 10 5 4 4 5 5 6 5 5 5 4 4 5 6 4
14 13 9 5 1 4 4 5 8 3 1 1 13 20 21 19 18 19 24 20 21 21 21 21 23 28 31 30 26 25 23 17 12 12 8 9 9 6 5 5 5 5 6 6 6 7 7 7 8
2 7 0 1 2 4 3 6 10 4 5 5 12 14 20 19 18 16 16 21 22 24 24 21 21 23 26 30 28 24 21 19 12 11 13 14 12 8 4 4 4 6 6 6 7 8 9 9 9
15 5 6 8 6 4 3 6 4 2 4 6 8 9 15 17 15 16 15 16 17 18 18 15 13 10 6 9 11 16 16 16 15 15 16 13 9 8 8 6 6 7 8 8 8 9 9 9 10
7 8 3 3 2 4 4 6 8 4 2 6 10 11 10 11 10 9 11 7 8 10 10 18 27 29 24 19 9 6 11 16 20 19 15 13 11 10 9 8 7 8 8 9 10 10 12 12 10
5 6 4 3 6 9 7 4 9 7 4 4 6 6 8 11 11 10 14 19 23 26 31 39 36 33 23 14 20 14 9 13 23 18 15 15 14 10 12 12 6 6 6 11 14 14 13 14 10
5 4 2 2 3 11 14 6 2 3 3 4 2 4 6 8 9 9 14 20 25 27 32 33 24 17 16 8 10 5 5 11 10 14 15 15 14 9 6 6 8 9 12 12 13 13 9 10 9
2 10 10 8 6 4 5 5 1 2 5 7 6 5 6 7 6 8 11 14 16 24 27 21 12 13 12 15 19 17 13 11 10 12 13 13 11 10 10 11 12 12 10 9 7 6 4 4 6

GFSSGP_925_spd_312.txt.gz
Wind_Speed
3 2 3 5 4 3 11 8 13 14 11 4 7 2 9 10 8 8 15 10 11 11 10 9 10 10 11 11 12 11 11 11 12 12 12 13 13 13 14 14 14 14 13 14 14 15 15 16 15
4 3 5 4 3 9 9 13 13 9 9 13 8 7 4 8 7 15 13 12 11 11 11 10 10 10 10 10 10 11 12 11 12 12 12 12 13 13 13 13 12 13 12 13 15 14 14 14 13
4 4 3 1 5 8 9 9 12 11 12 8 5 6 4 6 13 8 17 15 13 12 11 9 9 9 10 10 10 10 10 10 11 11 12 12 11 12 12 12 10 10 10 11 12 12 11 10 9
3 4 4 2 13 9 9 9 9 11 8 4 8 9 8 11 9 11 16 15 14 12 10 8 8 8 9 9 10 10 9 10 11 11 11 11 11 10 11 10 9 8 9 9 9 9 9 8 9
3 4 4 10 14 12 12 13 9 8 8 7 4 8 13 7 11 18 16 14 13 11 10 7 8 7 7 8 8 10 11 10 11 11 10 10 10 9 9 9 8 8 8 8 8 7 7 8 8
3 3 9 10 14 12 10 9 6 6 8 7 7 17 9 12 18 16 15 13 12 11 9 8 6 8 7 7 7 9 9 9 9 10 9 9 9 9 8 8 8 9 8 8 7 6 5 6 6
1 3 7 13 14 10 9 7 4 7 8 7 14 13 10 16 16 15 14 12 11 10 9 8 8 8 7 8 7 10 9 9 9 9 9 9 10 9 9 9 9 8 8 7 5 4 4 4 5
0 2 10 10 9 12 9 5 5 5 7 11 8 7 15 19 17 16 14 12 9 8 8 8 9 8 7 8 8 8 9 10 10 9 9 9 9 9 8 10 8 8 7 6 4 2 2 4 7
2 3 6 7 4 9 10 9 4 4 12 8 6 8 21 21 18 17 15 12 10 8 8 8 8 7 8 9 7 8 9 9 9 8 8 7 7 6 5 6 7 6 4 3 2 0 2 5 7
3 5 7 6 5 10 11 5 10 9 11 10 9 16 22 21 19 17 15 14 12 11 10 9 9 10 11 11 10 9 8 8 7 5 4 5 5 4 5 4 4 4 3 1 2 3 5 6 4
2 8 5 4 6 10 10 7 5 12 9 11 15 20 21 20 18 16 13 12 12 11 11 11 12 12 12 12 11 10 8 7 4 2 1 1 1 2 2 2 1 1 3 2 3 4 2 3 5
4 5 3 5 8 10 8 9 9 1 5 8 17 21 21 17 17 16 13 12 13 13 13 14 14 13 12 11 9 9 8 6 4 2 2 2 1 1 1 2 1 0 1 2 3 2 3 5 7
1 7 10 10 7 9 8 8 6 5 8 15 20 19 18 16 16 14 13 12 11 13 15 15 14 12 11 10 7 6 7 5 5 4 1 3 3 3 2 2 1 2 3 2 2 2 3 3 3
3 12 13 10 10 8 9 9 2 6 11 15 17 16 15 15 17 15 13 12 12 15 16 15 14 12 9 7 5 5 5 4 2 2 1 3 3 2 1 0 0 2 3 3 2 2 2 1 3
11 14 13 9 8 4 7 8 3 13 14 15 15 14 13 14 16 15 14 13 13 14 17 16 14 12 9 7 6 6 6 5 3 2 1 1 2 3 1 1 2 3 3 2 4 4 4 5 5
9 10 9 8 9 6 7 9 9 14 15 15 15 14 13 14 15 15 14 14 14 15 16 16 14 12 10 9 7 7 7 6 5 3 4 4 4 2 2 4 5 4 5 5 5 6 8 7 9
7 5 2 7 8 5 10 3 9 14 14 14 15 14 14 14 14 16 15 15 15 16 16 16 14 12 11 8 7 8 9 9 8 6 5 4 5 5 6 7 6 5 7 7 8 8 8 12 13
5 5 3 3 7 7 8 10 8 12 14 14 14 15 15 15 16 17 16 16 15 15 16 16 15 13 10 8 7 7 10 13 11 10 8 6 6 6 7 8 6 7 9 10 9 8 11 11 11
7 4 5 2 2 7 8 8 6 12 15 14 14 16 16 16 18 19 18 17 16 17 17 18 17 15 12 11 10 9 11 14 12 10 8 8 8 8 9 10 9 8 9 9 8 10 11 12 11
3 6 4 3 3 8 6 10 8 11 16 16 16 16 18 18 16 19 20 20 20 19 19 19 20 19 17 14 12 10 8 10 11 9 7 6 7 7 8 9 10 9 10 11 11 11 11 12 8
8 6 5 10 4 5 7 14 6 12 15 15 15 15 18 19 19 18 21 23 23 22 23 24 24 23 21 18 15 13 11 10 12 11 8 5 4 4 4 5 7 7 8 9 12 11 10 10 9
2 4 4 6 6 3 2 2 8 8 14 17 18 17 17 18 17 17 21 23 24 26 24 24 24 27 28 21 19 19 19 18 17 14 13 6 2 2 1 3 4 6 7 7 7 6 8 7 6
7 3 1 2 4 6 10 6 7 7 7 13 17 19 18 18 19 19 21 23 25 23 23 24 24 24 25 25 24 22 21 20 17 14 11 6 5 4 4 5 6 6 5 5 4 3 4 3 3
3 4 4 3 5 9 6 5 5 4 4 3 7 13 17 17 17 17 21 22 20 20 21 21 21 23 22 22 23 23 18 16 15 14 12 8 7 6 7 4 4 5 4 3 4 4 5 5 5
9 10 8 6 8 5 5 5 7 6 2 1 4 7 11 18 18 17 15 18 20 19 20 18 15 14 14 9 9 12 16 16 18 16 12 13 10 7 8 4 4 6 5 4 2 3 4 5 4
11 13 6 10 12 6 7 4 1 3 3 3 1 4 7 12 17 17 16 15 13 12 12 7 22 25 22 18 16 14 11 11 18 17 18 14 10 9 7 8 8 9 5 5 3 2 3 4 5
8 9 15 14 18 11 13 9 10 11 7 2 3 6 6 9 11 6 5 14 10 11 21 27 28 28 25 28 24 24 19 8 11 9 17 19 9 8 8 11 11 11 1 1 1 1 4 6 5
11 8 7 11 15 19 11 11 9 7 8 4 1 5 6 6 6 7 10 15 18 25 27 26 30 27 26 27 19 9 8 4 12 6 1 9 7 6 10 12 13 10 5 5 4 3 4 4 3
9 12 12 10 10 11 13 8 9 3 3 2 4 5 5 5 7 7 11 14 18 23 25 26 27 25 12 4 12 14 8 6 5 11 12 10 11 12 10 9 9 10 6 8 9 7 4 1 2
12 18 17 12 11 11 10 12 6 6 7 5 6 9 8 8 8 8 10 13 15 19 16 17 12 6 2 5 14 14 11 8 5 5 7 9 9 7 6 7 8 9 9 8 5 3 2 2 4

GFSSGP_925_spd_315.txt.gz
Wind_Speed
5 7 8 7 4 4 12 13 15 15 11 14 7 8 15 15 10 11 20 14 15 18 11 10 10 10 9 10 9 10 11 11 10 12 12 12 13 13 15 14 15 14 14 14 14 15 15 15 14
6 6 8 5 2 11 8 13 12 13 14 11 10 8 12 15 15 19 18 15 14 16 16 12 10 9 9 9 9 10 10 10 11 11 12 13 13 13 13 14 15 14 14 14 13 13 13 12 12
5 8 5 3 2 13 9 12 14 13 11 9 6 11 8 15 15 17 20 16 15 16 16 12 11 10 9 9 9 10 11 11 11 11 12 12 12 12 12 13 12 13 13 12 11 11 10 10 9
6 6 5 2 14 11 15 11 12 11 6 2 11 13 16 16 10 21 19 17 15 21 15 11 11 10 9 9 9 9 10 11 11 11 10 11 10 10 10 10 11 11 11 10 8 8 8 8 8
11 7 2 6 21 13 13 13 10 8 9 7 7 16 13 8 20 19 17 16 15 12 12 11 11 11 9 9 10 11 10 11 11 10 10 8 8 9 9 9 10 10 10 9 8 7 7 6 6
7 4 2 9 15 15 13 10 7 10 8 10 11 16 12 15 18 18 16 14 13 18 16 12 9 10 9 8 10 9 9 9 10 8 8 7 7 8 8 9 9 9 8 8 7 6 5 4 4
12 3 3 12 12 13 11 4 8 10 8 8 16 12 12 17 17 17 14 11 12 11 14 11 10 8 9 8 9 8 8 8 7 7 7 6 7 7 8 9 9 9 8 6 4 3 2 2 3
8 6 14 10 5 14 9 10 4 8 11 12 12 9 17 20 18 17 14 12 11 11 12 11 10 11 12 9 10 9 8 8 7 7 7 7 8 8 8 8 8 7 5 4 2 0 1 3 4
4 3 5 12 5 11 8 10 6 6 11 9 3 15 21 22 19 17 15 12 10 10 11 12 11 9 10 10 9 10 10 9 9 8 8 6 8 7 6 5 4 5 4 3 1 1 3 2 1
2 5 7 11 13 13 6 10 11 10 12 11 9 20 24 22 19 17 14 14 13 12 12 11 12 12 13 14 12 11 11 9 8 7 2 4 6 5 8 6 3 3 1 1 1 4 1 7 7
12 1 8 11 10 9 10 10 7 11 10 12 15 19 20 19 17 15 13 12 12 12 12 11 13 13 14 14 14 13 10 9 9 5 3 7 2 4 7 7 6 6 2 8 2 4 7 2 3
3 9 12 10 11 11 9 9 8 4 10 14 15 18 19 16 15 15 12 11 12 12 12 13 14 13 13 13 13 11 12 8 6 8 3 3 7 3 1 4 4 2 4 5 1 4 5 4 4
9 11 13 12 9 14 9 8 7 5 6 9 17 17 17 15 15 14 12 11 12 12 12 14 13 10 12 11 11 10 12 10 9 6 4 3 4 3 3 4 3 3 2 3 1 3 2 1 1
8 13 13 9 10 8 11 10 6 7 12 15 16 16 15 14 15 14 12 12 12 13 14 14 13 12 12 7 10 9 10 6 4 4 3 2 2 1 3 3 1 1 3 5 4 4 4 5 4
10 14 11 10 7 7 9 10 8 11 13 15 15 14 14 12 14 14 13 13 13 14 15 15 14 13 11 8 10 10 10 10 6 5 2 0 3 2 2 2 5 4 4 3 3 4 5 5 7
8 10 5 12 8 5 8 10 14 12 12 13 14 13 12 13 15 14 14 13 14 15 15 15 15 14 11 10 9 10 10 4 8 6 5 4 3 3 3 6 7 4 7 8 7 9 8 12 10
6 9 20 10 9 9 9 7 13 12 11 13 13 14 13 13 13 15 16 15 17 15 16 16 14 13 12 10 9 8 7 10 9 10 8 7 5 5 6 8 9 6 11 13 10 13 12 13 14
1 14 4 8 12 5 8 5 10 13 13 11 14 14 14 14 15 18 17 17 18 17 17 15 15 11 11 10 8 9 11 13 14 12 11 6 6 6 7 10 8 8 13 13 11 10 12 13 15
27 8 5 5 8 8 5 13 11 12 12 13 13 15 15 15 18 21 19 18 18 18 17 18 17 15 13 13 12 13 13 14 16 15 12 5 8 10 8 10 12 10 10 7 10 12 15 17 14
9 4 3 6 2 6 4 12 9 15 14 13 14 16 16 17 17 20 21 19 18 21 20 19 20 19 17 14 13 13 12 12 15 12 5 4 8 9 10 10 11 14 11 14 11 11 11 14 13
7 7 2 6 8 11 9 13 9 12 11 12 13 13 16 17 18 18 21 21 21 20 21 22 24 23 22 20 16 13 13 12 9 11 12 11 8 7 7 5 5 7 9 11 10 11 9 12 16
10 22 7 14 10 2 16 3 8 9 13 14 14 14 14 17 17 17 20 23 23 23 22 23 23 22 22 22 19 19 16 18 19 17 16 8 4 5 4 2 1 2 6 5 8 7 8 8 13
9 4 4 5 13 11 15 7 5 12 11 13 13 16 15 15 17 18 21 26 24 23 23 24 23 22 22 22 22 19 21 19 14 11 12 7 6 6 3 3 3 5 5 8 8 10 10 10 10
6 9 11 12 15 12 14 16 6 8 8 8 9 11 14 15 16 16 20 20 22 23 22 22 23 22 20 21 20 19 19 13 16 16 9 12 17 9 8 7 7 9 9 10 9 9 10 11 10
9 16 11 4 7 7 7 15 8 12 9 7 5 2 6 12 15 15 14 18 21 20 19 18 18 12 6 7 10 9 7 6 7 13 17 22 18 9 6 7 7 9 11 13 12 12 12 12 9
3 18 8 11 12 7 14 3 5 11 12 12 8 2 4 10 12 16 15 17 17 16 25 24 26 28 24 21 20 19 15 10 8 10 17 26 18 14 7 7 7 9 10 9 12 11 13 11 7
13 16 16 16 19 17 15 6 12 17 15 12 12 7 7 7 13 13 5 7 13 25 20 25 31 28 27 25 26 20 16 11 12 14 17 16 16 6 4 2 8 9 9 11 10 6 5 4 7
12 17 13 11 15 15 17 12 8 6 13 15 11 9 7 7 11 13 14 22 25 25 23 22 24 26 22 18 10 10 2 7 5 9 7 12 9 6 6 8 7 8 5 4 1 2 5 4 4
10 12 12 16 12 11 12 2 9 5 10 16 12 12 9 10 8 8 13 19 21 22 22 21 18 14 5 5 3 10 12 12 6 4 6 7 4 5 3 4 5 4 3 6 5 3 6 5 5
9 15 16 12 13 14 12 12 10 12 11 14 13 11 9 9 9 8 12 16 19 20 18 13 10 1 2 3 4 10 11 10 8 6 5 4 6 6 6 3 3 3 4 5 5 6 4 6 6